Kokomo, IN

6:59 AM EDT on July 22, 2017 (GMT -0400)
Kokomo Municipal

Weather History for KOKK - November, 2013

Change the Weather History Date:

Thursday, November 7, 2013

  Actual Average (KGUS) Record (KGUS)
Temperature  
Mean Temperature 40 °F -  
Max Temperature 48 °F 50 °F 69 °F (2001)
Min Temperature 30 °F 35 °F 24 °F (1998)
Degree Days  
Heating Degree Days 25    
Moisture  
Dew Point 29 °F    
Average Humidity 68    
Maximum Humidity 86    
Minimum Humidity 43    
Precipitation  
Precipitation 0.02 in - - ()
Sea Level Pressure  
Sea Level Pressure 30.19 in    
Wind  
Wind Speed 12 mph (WNW)    
Max Wind Speed 22 mph    
Max Gust Speed 26 mph    
Visibility 10 miles    
Events      
Averages and records for this station are not official NWS values.
T = Trace of Precipitation, MM = Missing Value Source: NWS Daily Summary

Daily Weather History Graph

Daily Weather History Graph

Search for Another Location

Airport or City:

Trip Planner

Search our weather history database for the weather conditions in past years. The results will help you decide how hot, cold, wet, or windy it might be!

Date:

Astronomy

Nov. 07, 2013 Rise Set
Actual Time 6:21 AM CST 4:33 PM CST
Civil Twilight 5:52 AM CST 5:02 PM CST
Nautical Twilight 5:20 AM CST 5:35 PM CST
Astronomical Twilight 4:48 AM CST 6:07 PM CST
Moon 10:29 AM CST (11/7) 8:44 PM CST (11/7)
Length of Visible Light 11h 09m
Length of Day
10h 12m
Waxing Crescent, 23% of the Moon is Illuminated
Nov 7
Waxing Crescent
Nov 9
First Quarter
Nov 17
Full
Nov 25
Last Quarter
Dec 2
New

Hourly Weather History & Observations

Time (CST) Temp. Windchill Dew Point Humidity Pressure Visibility Wind Dir Wind Speed Gust Speed Precip Events Conditions
12:15 AM 41.0 °F 34.3 °F 35.6 °F 81% 30.11 in 10.0 mi WNW 11.5 mph - N/A   Overcast
12:35 AM 41.0 °F 34.3 °F 35.6 °F 81% 30.12 in 10.0 mi WNW 11.5 mph - N/A   Overcast
12:55 AM 41.0 °F 33.9 °F 35.6 °F 81% 30.11 in 10.0 mi WNW 12.7 mph - N/A   Overcast
1:15 AM 41.0 °F 33.5 °F 35.6 °F 81% 30.11 in 10.0 mi WNW 13.8 mph - N/A   Overcast
1:35 AM 39.2 °F 31.6 °F 33.8 °F 81% 30.11 in 10.0 mi WNW 12.7 mph - N/A   Overcast
1:55 AM 39.2 °F 32.0 °F 33.8 °F 81% 30.11 in 10.0 mi NW 11.5 mph - N/A   Mostly Cloudy
2:15 AM 39.2 °F 31.6 °F 33.8 °F 81% 30.12 in 10.0 mi NW 12.7 mph - N/A   Mostly Cloudy
2:35 AM 37.4 °F 29.8 °F 30.2 °F 75% 30.13 in 10.0 mi WNW 11.5 mph - N/A   Partly Cloudy
2:55 AM 37.4 °F 30.3 °F 30.2 °F 75% 30.14 in 10.0 mi WNW 10.4 mph - N/A   Clear
3:15 AM 35.6 °F 27.5 °F 30.2 °F 81% 30.15 in 10.0 mi NW 11.5 mph - N/A   Clear
3:35 AM 35.6 °F 28.0 °F 28.4 °F 75% 30.15 in 10.0 mi NW 10.4 mph - N/A   Clear
3:55 AM 35.6 °F 27.5 °F 28.4 °F 75% 30.16 in 10.0 mi NW 11.5 mph - N/A   Clear
4:15 AM 33.8 °F 27.0 °F 28.4 °F 81% 30.18 in 10.0 mi West 8.1 mph - N/A   Clear
4:35 AM 33.8 °F 27.0 °F 28.4 °F 81% 30.18 in 10.0 mi WNW 8.1 mph - N/A   Clear
4:55 AM 33.8 °F 27.0 °F 28.4 °F 81% 30.18 in 10.0 mi WNW 8.1 mph - N/A   Clear
5:15 AM 33.8 °F 26.4 °F 26.6 °F 75% 30.19 in 10.0 mi WNW 9.2 mph - N/A   Clear
5:35 AM 33.8 °F 27.0 °F 26.6 °F 75% 30.20 in 10.0 mi WNW 8.1 mph - N/A   Clear
5:55 AM 32.0 °F 25.6 °F 26.6 °F 80% 30.20 in 10.0 mi WNW 6.9 mph - N/A   Clear
6:15 AM 32.0 °F 25.6 °F 26.6 °F 80% 30.20 in 10.0 mi WNW 6.9 mph - N/A   Clear
6:35 AM 32.0 °F 26.4 °F 24.8 °F 75% 30.21 in 10.0 mi West 5.8 mph - N/A   Clear
6:55 AM 33.8 °F 27.7 °F 26.6 °F 75% 30.22 in 10.0 mi West 6.9 mph - N/A   Clear
7:15 AM 33.8 °F 27.7 °F 26.6 °F 75% 30.22 in 10.0 mi West 6.9 mph - N/A   Clear
7:35 AM 33.8 °F 26.4 °F 26.6 °F 75% 30.23 in 10.0 mi WNW 9.2 mph - N/A   Clear
7:55 AM 35.6 °F 28.6 °F 28.4 °F 75% 30.24 in 10.0 mi West 9.2 mph - N/A   Clear
8:15 AM 35.6 °F 28.6 °F 28.4 °F 75% 30.25 in 10.0 mi WNW 9.2 mph - N/A   Clear
8:35 AM 37.4 °F 30.3 °F 28.4 °F 70% 30.24 in 10.0 mi WNW 10.4 mph - N/A   Clear
8:55 AM 37.4 °F 30.3 °F 28.4 °F 70% 30.25 in 10.0 mi West 10.4 mph - N/A   Clear
9:15 AM 39.2 °F 33.0 °F 28.4 °F 65% 30.26 in 10.0 mi West 9.2 mph - N/A   Clear
9:35 AM 39.2 °F 32.5 °F 30.2 °F 70% 30.25 in 10.0 mi West 10.4 mph - N/A   Clear
9:55 AM 41.0 °F 34.3 °F 30.2 °F 65% 30.25 in 10.0 mi West 11.5 mph - N/A   Clear
10:15 AM 42.8 °F 36.6 °F 28.4 °F 57% 30.25 in 10.0 mi West 11.5 mph 16.1 mph N/A   Clear
10:35 AM 42.8 °F 36.2 °F 30.2 °F 61% 30.25 in 10.0 mi West 12.7 mph - N/A   Clear
10:55 AM 44.6 °F 38.8 °F 30.2 °F 57% 30.24 in 10.0 mi WNW 11.5 mph - N/A   Clear
11:15 AM 44.6 °F 37.8 °F 30.2 °F 57% 30.23 in 10.0 mi West 15.0 mph - N/A   Clear
11:35 AM 44.6 °F 38.8 °F 30.2 °F 57% 30.22 in 10.0 mi West 11.5 mph - N/A   Clear
11:55 AM 46.4 °F 40.1 °F 28.4 °F 50% 30.21 in 10.0 mi West 15.0 mph 19.6 mph N/A   Clear
12:15 PM 46.4 °F 39.8 °F 28.4 °F 50% 30.20 in 10.0 mi WNW 16.1 mph 21.9 mph N/A   Clear
12:35 PM 46.4 °F 39.2 °F 28.4 °F 50% 30.20 in 10.0 mi WNW 18.4 mph 24.2 mph N/A   Clear
12:55 PM 46.4 °F 40.4 °F 28.4 °F 50% 30.20 in 10.0 mi West 13.8 mph 25.3 mph N/A   Clear
1:15 PM 46.4 °F 39.2 °F 28.4 °F 50% 30.19 in 10.0 mi West 18.4 mph 23.0 mph N/A   Clear
1:35 PM 48.2 °F - 26.6 °F 43% 30.18 in 10.0 mi WNW 20.7 mph 26.5 mph N/A   Clear
1:55 PM 48.2 °F - 26.6 °F 43% 30.18 in 10.0 mi WNW 19.6 mph 24.2 mph N/A   Clear
2:15 PM 46.4 °F 39.2 °F 26.6 °F 46% 30.18 in 10.0 mi WNW 18.4 mph 25.3 mph N/A   Clear
2:35 PM 46.4 °F 39.0 °F 28.4 °F 50% 30.17 in 10.0 mi West 19.6 mph 26.5 mph N/A   Clear
2:55 PM 46.4 °F 38.5 °F 26.6 °F 46% 30.17 in 10.0 mi WNW 21.9 mph 25.3 mph N/A   Clear
3:15 PM 44.6 °F 37.4 °F 28.4 °F 53% 30.17 in 10.0 mi West 16.1 mph 24.2 mph N/A   Mostly Cloudy
3:35 PM 44.6 °F 37.8 °F 28.4 °F 53% 30.18 in 10.0 mi West 15.0 mph 21.9 mph N/A   Overcast
3:55 PM 44.6 °F 37.2 °F 28.4 °F 53% 30.18 in 10.0 mi West 17.3 mph 20.7 mph N/A   Overcast
4:15 PM 44.6 °F 38.1 °F 28.4 °F 53% 30.18 in 10.0 mi West 13.8 mph - N/A   Overcast
4:35 PM 44.6 °F 38.4 °F 30.2 °F 57% 30.18 in 10.0 mi West 12.7 mph - N/A   Overcast
4:55 PM 42.8 °F 35.8 °F 30.2 °F 61% 30.18 in 10.0 mi West 13.8 mph - N/A   Overcast
5:15 PM 42.8 °F 37.0 °F 32.0 °F 66% 30.18 in 10.0 mi West 10.4 mph - N/A   Overcast
5:35 PM 42.8 °F 38.0 °F 32.0 °F 66% 30.18 in 10.0 mi WSW 8.1 mph - N/A   Overcast
5:55 PM 42.8 °F 37.5 °F 30.2 °F 61% 30.18 in 10.0 mi WSW 9.2 mph - N/A   Overcast
6:15 PM 42.8 °F 37.5 °F 32.0 °F 66% 30.18 in 10.0 mi WSW 9.2 mph - N/A   Overcast
6:35 PM 42.8 °F 38.0 °F 30.2 °F 61% 30.17 in 10.0 mi WSW 8.1 mph - N/A   Overcast
6:55 PM 42.8 °F 38.6 °F 30.2 °F 61% 30.17 in 10.0 mi SW 6.9 mph - N/A   Overcast
7:15 PM 42.8 °F 37.5 °F 30.2 °F 61% 30.17 in 10.0 mi WSW 9.2 mph - N/A   Overcast
7:35 PM 42.8 °F 34.5 °F 32.0 °F 66% 30.17 in 10.0 mi West 18.4 mph 21.9 mph N/A   Mostly Cloudy
7:55 PM 41.0 °F 33.1 °F 33.8 °F 76% 30.18 in 10.0 mi WNW 15.0 mph - N/A   Mostly Cloudy
8:15 PM 39.2 °F 30.5 °F 32.0 °F 75% 30.18 in 10.0 mi WNW 16.1 mph 20.7 mph N/A   Overcast
8:35 PM 39.2 °F 29.0 °F 30.2 °F 70% 30.20 in 10.0 mi WNW 21.9 mph 25.3 mph N/A   Overcast
8:55 PM 37.4 °F 28.2 °F 30.2 °F 75% 30.20 in 10.0 mi WNW 16.1 mph - N/A   Overcast
9:15 PM 37.4 °F 28.5 °F 30.2 °F 75% 30.21 in 10.0 mi WNW 15.0 mph - N/A   Overcast
9:35 PM 35.6 °F 27.1 °F 28.4 °F 75% 30.22 in 9.0 mi West 12.7 mph - N/A   Scattered Clouds
9:55 PM 35.6 °F 25.5 °F 30.2 °F 81% 30.22 in 10.0 mi WNW 17.3 mph 21.9 mph N/A   Mostly Cloudy
10:15 PM 35.6 °F 25.9 °F 28.4 °F 75% 30.23 in 10.0 mi WNW 16.1 mph 20.7 mph N/A   Partly Cloudy
10:35 PM 33.8 °F 24.3 °F 26.6 °F 75% 30.23 in 10.0 mi WNW 13.8 mph - N/A   Clear
10:55 PM 33.8 °F 25.8 °F 28.4 °F 81% 30.24 in 10.0 mi WNW 10.4 mph - N/A   Clear
11:15 PM 33.8 °F 25.8 °F 28.4 °F 81% 30.24 in 8.0 mi West 10.4 mph - N/A   Clear
11:35 PM 32.0 °F 24.8 °F 26.6 °F 80% 30.24 in 8.0 mi West 8.1 mph - N/A   Clear
11:55 PM 30.2 °F 21.9 °F 26.6 °F 86% 30.24 in 8.0 mi West 9.2 mph - N/A   Clear